Regional Weather Roundup
Issued by NWS

Home | Current Version | Previous Version | Text Only | Print | Product List | Glossary Off
Versions: 1 2 3 4 5 6 7 8 9 10 11 12 13 14 15 16 17 18 19 20 21 22 23 24 25 26 27 28 29 30 31 32 33 34 35 36 37 38 39 40 41 42 43 44 45 46 47 48 49 50

000
ASUS45 KCYS 272310
RWRWY

WYOMING REGIONAL WEATHER ROUNDUP
NATIONAL WEATHER SERVICE CHEYENNE WY
500 PM MDT SUN JUL 27 2014

NOTE:  "FAIR" INDICATES FEW OR NO CLOUDS BELOW 12,000 FEET
WITH NO SIGNIFICANT WEATHER AND/OR OBSTRUCTIONS TO VISIBILITY.

WYZ001-280000-
YELLOWSTONE NATIONAL PARK

CITY           SKY/WX    TMP DP  RH WIND       PRES   REMARKS
LK YELLOWSTONE   N/A     75  33  21 VRB6      30.48S
W YELLOWSTONE  NOT AVBL

$$
WYZ002>013-054>058-071-098>099-280000-
NORTHERN WYOMING

CITY           SKY/WX    TMP DP  RH WIND       PRES   REMARKS
JACKSON        SUNNY     84  28  13 S3        30.33F
CODY           NOT AVBL
GREYBULL       SUNNY     91  28  10 CALM      30.20F
WORLAND        SUNNY     92  26   9 NE8       30.21F
SHERIDAN       SUNNY     87  41  19 NE6       30.27F
BUFFALO        SUNNY     84  35  17 CALM      30.33F
GILLETTE       SUNNY     85  39  19 VRB5      30.30S
HULETT         FAIR      79  43  27 MISG      30.33
NEWCASTLE      FAIR      84  32  15 MISG      30.29

$$
WYZ014>020-022>026-101>103-280000-
CENTRAL WYOMING

CITY           SKY/WX    TMP DP  RH WIND       PRES   REMARKS
BIG PINEY      PTSUNNY   85  21   9 VRB7      30.38F
PINEDALE       PTCLDY    81  25  12 NW8       30.40F
DUBOIS         FAIR      81  25  12 E13G21    30.39F
LANDER         MOSUNNY   88  23   9 N8        30.28F
RIVERTON       MOSUNNY   86  20   9 NE6       30.30F
CASPER         SUNNY     86  38  18 NE9G17    30.30F
DOUGLAS        SUNNY     85  47  26 CALM      30.31F

$$
WYZ021-027>030-104>119-280000-
SOUTHERN WYOMING

CITY           SKY/WX    TMP DP  RH WIND       PRES   REMARKS
EVANSTON       MOSUNNY   87  27  11 NE6       30.36F
KEMMERER       CLEAR    N/A N/A N/A NE8       30.39F
FORT BRIDGER   FAIR      89  21   8 N8        30.39
ROCK SPRINGS   SUNNY     87  23   9 VRB3      30.34F
DIXON          FAIR      90  30  11 W9G16     30.34F
RAWLINS        SUNNY     86  30  13 NW13G18   30.36F
SARATOGA       FAIR      86  32  14 NW12G18   30.38F
LARAMIE        MOSUNNY   77  52  41 SE15G24   30.42R
CHEYENNE       SUNNY     78  53  41 S10G20    30.38F
TORRINGTON     SUNNY     85  51  31 SE10      30.26F
PINE BLUFFS    MOCLDY    82  46  28 SE14      30.33S

$$


USA.gov is the U.S. government's official web portal to all federal, state and local government web resources and services.